Home > Weather > Canton > Past weeks

Flag for U.S.A. Weather for the Past 2 Weeks in Canton, Ohio, U.S.A.

Now
43 °F

Passing clouds.


Feels Like: 36 °F
Forecast: 26 / 49 °F
Wind: 14 mph from Southwest

Location: Akron-Canton Regional Airport

Current Time: Feb 7, 2016 at 12:52:51 PM

Latest Report: Feb 7, 2016 at 11:51 AM


Visibility: 10 mi

Pressure: 30.04 "Hg

Humidity: 49%

Dew point: 25 °F

Location of CantonLocation

Historic Weather in Canton — Graph

°F

Canton Temperature Yesterday

Maximum temperature yesterday: 40 °F (at 3:51 PM)
Minimum temperature yesterday: 26 °F (at 7:51 AM)
Average temperature yesterday: 32 °F

High & Low Weather Summary for the Past Weeks

 TemperatureHumidityPressure
High62 °F (Feb 3, 1:51 PM)89% (Feb 2, 11:51 PM)30.41 "Hg (Feb 2, 11:51 PM)
Low11 °F (Jan 24, 3:51 AM)33% (Jan 25, 2:51 PM)29.62 "Hg (Feb 3, 1:51 PM)
Average35 °F65%30.01 "Hg
* Reported Jan 23 11:51 AM — Feb 7 11:51 AM, Canton, Weather by CustomWeather, © 2016

Note: Actual official high and low records may vary slightly from our data, if they occured in-between our weather recording intervals... More about our weather records

Advertising

Canton Weather History for the Previous 24 Hours

 ConditionsComfort  
Time TempWeatherWind HumidityBarometerVisibility
11:51 AM
Sun, Feb 7
43 °FPassing clouds.14 mph49%30.04 "Hg10 mi
10:51 AM39 °FBroken clouds.10 mph55%30.07 "Hg10 mi
9:51 AM36 °FOvercast.9 mph62%30.08 "Hg10 mi
8:51 AM31 °FSunny.9 mph69%30.10 "Hg9 mi
7:51 AM27 °FScattered clouds.8 mph72%30.11 "Hg8 mi
6:51 AM25 °FClear.8 mph75%30.11 "Hg10 mi
5:51 AM25 °FClear.6 mph72%30.13 "Hg10 mi
4:51 AM26 °FClear.6 mph69%30.15 "Hg10 mi
3:51 AM26 °FClear.5 mph69%30.16 "Hg10 mi
2:51 AM26 °FClear.6 mph66%30.19 "Hg10 mi
1:51 AM27 °FClear.6 mph63%30.19 "Hg10 mi
12:51 AM28 °FClear.8 mph61%30.20 "Hg10 mi
11:51 PM
Sat, Feb 6
28 °FClear.7 mph61%30.21 "Hg10 mi
10:51 PM29 °FClear.6 mph58%30.22 "Hg10 mi
9:51 PM28 °FClear.7 mph61%30.24 "Hg10 mi
8:51 PM29 °FClear.6 mph58%30.24 "Hg10 mi
7:51 PM32 °FClear.6 mph50%30.25 "Hg10 mi
6:51 PM31 °FClear.6 mph54%30.25 "Hg10 mi
5:51 PM35 °FClear.8 mph50%30.24 "Hg10 mi
4:51 PM39 °FPassing clouds.12 mph39%30.23 "Hg10 mi
3:51 PM40 °FPassing clouds.12 mph45%30.22 "Hg9 mi
2:51 PM38 °FPassing clouds.13 mph45%30.24 "Hg9 mi
1:51 PM37 °FPassing clouds.9 mph46%30.26 "Hg9 mi
12:51 PM35 °FPassing clouds.8 mph59%30.29 "Hg7 mi
Weather by CustomWeather, © 2016

See weather overviewHow to use our weather pages